Akron Canton, OH

3:43 PM EDT on July 22, 2017 (GMT -0400)
Akron-Canton Regional

Weather History for KCAK - February, 2014

Change the Weather History Date:

Saturday, February 15, 2014

  Actual Average Record
Temperature  
Mean Temperature 19 °F 29 °F  
Max Temperature 26 °F 37 °F 66 °F (1954)
Min Temperature 12 °F 21 °F -8 °F (1943)
Degree Days  
Heating Degree Days 46 36  
Month to date heating degree days 675 560  
Since 1 July heating degree days 4320 4096  
Cooling Degree Days 0 0  
Month to date cooling degree days 0 0  
Year to date cooling degree days 0 0  
Moisture  
Dew Point 14 °F    
Average Humidity 72    
Maximum Humidity 96    
Minimum Humidity 48    
Precipitation  
Precipitation 0.03 in 0.09 in 1.66 in (1990)
Month to date precipitation 0.72 1.23  
Year to date precipitation 2.64 3.84  
Snow  
Snow 0.40 in 0.40 in - ()
Month to date snowfall 9.2 5.5  
Since 1 July snowfall 51.5 31.5  
Snow Depth 5.00 in    
Sea Level Pressure  
Sea Level Pressure 29.92 in    
Wind  
Wind Speed 10 mph (NW)    
Max Wind Speed 15 mph    
Max Gust Speed 15 mph    
Visibility 6 miles    
Events Snow    
T = Trace of Precipitation, MM = Missing Value Source: NWS Daily Summary

Daily Weather History Graph

Daily Weather History Graph

Search for Another Location

Airport or City:

Trip Planner

Search our weather history database for the weather conditions in past years. The results will help you decide how hot, cold, wet, or windy it might be!

Date:

Astronomy

Feb. 15, 2014 Rise Set
Actual Time 7:19 AM EST 6:00 PM EST
Civil Twilight 6:51 AM EST 6:28 PM EST
Nautical Twilight 6:19 AM EST 7:00 PM EST
Astronomical Twilight 5:47 AM EST 7:32 PM EST
Moon 6:59 PM EST (2/15) 7:17 AM EST (2/15)
Length of Visible Light 11h 36m
Length of Day
10h 40m
Full, 100% of the Moon is Illuminated
Feb 15
Full
Feb 22
Last Quarter
Mar 1
New
Mar 8
First Quarter
Mar 16
Full

Hourly Weather History & Observations

Time (EST) Temp. Windchill Dew Point Humidity Pressure Visibility Wind Dir Wind Speed Gust Speed Precip Events Conditions
12:16 AM 23.0 °F 13.9 °F 17.6 °F 80% 29.72 in 2.0 mi NW 8.1 mph - N/A Snow Light Snow
12:26 AM 23.0 °F 13.1 °F 17.6 °F 80% 29.72 in 1.0 mi NNW 9.2 mph - N/A Snow Light Snow
12:51 AM 22.1 °F 13.7 °F 17.8 °F 83% 29.76 in 1.0 mi North 6.9 mph - 0.00 in Snow Light Snow
1:33 AM 23.0 °F 18.4 °F 19.4 °F 86% 29.71 in 1.5 mi North 3.5 mph - N/A Snow Light Snow
1:51 AM 22.1 °F 14.7 °F 19.0 °F 88% 29.76 in 2.0 mi North 5.8 mph - 0.00 in Snow Light Snow
2:51 AM 23.0 °F 11.7 °F 19.0 °F 85% 29.75 in 4.0 mi North 11.5 mph - 0.00 in   Overcast
3:51 AM 22.1 °F 10.6 °F 19.0 °F 88% 29.76 in 3.0 mi NNW 11.5 mph - 0.00 in   Overcast
4:51 AM 21.0 °F 9.3 °F 18.0 °F 88% 29.79 in 3.0 mi NW 11.5 mph - N/A   Overcast
5:33 AM 21.2 °F 9.5 °F 17.6 °F 86% 29.76 in 3.0 mi NW 11.5 mph - N/A   Overcast
5:51 AM 21.0 °F 9.3 °F 18.0 °F 88% 29.83 in 3.0 mi NW 11.5 mph - N/A Snow Light Snow
6:14 AM 21.2 °F 9.5 °F 17.6 °F 86% 29.79 in 4.0 mi NW 11.5 mph - 0.00 in Snow Light Snow
6:51 AM 22.1 °F 10.6 °F 18.0 °F 84% 29.85 in 4.0 mi NW 11.5 mph - 0.00 in Snow Light Snow
7:51 AM 22.1 °F 10.0 °F 19.9 °F 91% 29.88 in 2.0 mi North 12.7 mph - 0.00 in Snow Light Snow
8:51 AM 23.0 °F 10.1 °F 21.0 °F 92% 29.92 in 1.5 mi NNW 15.0 mph - N/A Snow Light Snow
9:13 AM 24.8 °F 12.4 °F 19.4 °F 80% 29.88 in 2.0 mi NNW 15.0 mph - N/A Snow Light Snow
9:51 AM 24.1 °F 11.5 °F 19.9 °F 84% 29.95 in 2.0 mi NNW 15.0 mph - 0.00 in Snow Light Snow
10:51 AM 25.0 °F 12.6 °F 19.9 °F 81% 29.97 in 2.0 mi NNW 15.0 mph - N/A Snow Light Snow
11:51 AM 25.0 °F 12.6 °F 16.0 °F 69% 29.98 in 8.0 mi NW 15.0 mph - N/A Snow Light Snow
12:51 PM 25.0 °F 14.2 °F 16.0 °F 69% 29.97 in 8.0 mi West 11.5 mph - 0.00 in   Mostly Cloudy
1:51 PM 26.1 °F 14.0 °F 12.0 °F 55% 29.98 in 8.0 mi WNW 15.0 mph - N/A   Scattered Clouds
2:51 PM 26.1 °F 14.0 °F 10.0 °F 51% 29.99 in 10.0 mi West 15.0 mph - N/A   Scattered Clouds
3:51 PM 25.3 °F 14.7 °F 8.2 °F 48% 30.01 in 10.0 mi West 11.5 mph - N/A   Clear
4:51 PM 22.3 °F 10.8 °F 7.3 °F 53% 30.04 in 10.0 mi West 11.5 mph - N/A   Clear
5:51 PM 18.3 °F 5.9 °F 5.0 °F 56% 30.06 in 10.0 mi West 11.5 mph - N/A   Clear
6:51 PM 14.7 °F 3.8 °F 3.7 °F 62% 30.09 in 10.0 mi WNW 8.1 mph - N/A   Clear
7:51 PM 13.8 °F 4.9 °F 4.3 °F 66% 30.11 in 10.0 mi West 5.8 mph - N/A   Clear
8:51 PM 12.0 °F 2.7 °F 3.9 °F 70% 30.10 in 10.0 mi West 5.8 mph - N/A   Partly Cloudy
9:51 PM 12.6 °F 3.4 °F 4.1 °F 69% 30.09 in 10.0 mi West 5.8 mph - N/A   Scattered Clouds
10:51 PM 12.0 °F 5.9 °F 5.0 °F 73% 30.09 in 10.0 mi West 3.5 mph - N/A   Mostly Cloudy
11:20 PM 12.2 °F - 5.0 °F 73% 30.03 in 10.0 mi Calm Calm - N/A   Mostly Cloudy
11:51 PM 12.0 °F - 5.0 °F 73% 30.09 in 10.0 mi Calm Calm - N/A   Overcast